Time,TemperatureF,DewpointF,PressureIn,WindDirection,WindDirectionDegrees,WindSpeedMPH,WindSpeedGustMPH,Humidity,HourlyPrecipIn,Conditions,Clouds,dailyrainin,SoftwareType,DateUTC
2013-01-27 00:06:00,60.6,60.0,30.21,SE,141,0.0,0.0,96,0.00,,,0.00,weatherlink.com 1.10,2013-01-27 06:06:00,
2013-01-27 00:21:00,60.2,59.0,30.21,SE,141,0.0,0.0,96,0.00,,,0.00,weatherlink.com 1.10,2013-01-27 06:21:00,
2013-01-27 00:36:00,59.2,58.0,30.21,East,83,0.0,0.0,96,0.00,,,0.00,weatherlink.com 1.10,2013-01-27 06:36:00,
2013-01-27 00:51:00,57.5,56.0,30.21,East,80,0.0,0.0,96,0.00,,,0.00,weatherlink.com 1.10,2013-01-27 06:51:00,
2013-01-27 01:06:00,58.9,58.0,30.21,East,80,0.0,0.0,97,0.00,,,0.00,weatherlink.com 1.10,2013-01-27 07:06:00,
2013-01-27 01:21:00,60.8,60.0,30.21,East,82,0.0,0.0,98,0.00,,,0.00,weatherlink.com 1.10,2013-01-27 07:21:00,
2013-01-27 01:36:00,61.3,61.0,30.20,East,99,2.0,2.0,97,0.00,,,0.00,weatherlink.com 1.10,2013-01-27 07:36:00,
2013-01-27 01:52:00,61.6,61.0,30.20,East,99,0.0,3.0,97,0.00,,,0.00,weatherlink.com 1.10,2013-01-27 07:52:00,
2013-01-27 02:06:00,61.5,61.0,30.21,ESE,109,0.0,4.0,97,0.00,,,0.00,weatherlink.com 1.10,2013-01-27 08:06:00,
2013-01-27 02:21:00,61.2,60.0,30.21,ESE,113,2.0,5.0,97,0.00,,,0.00,weatherlink.com 1.10,2013-01-27 08:21:00,
2013-01-27 02:36:00,61.2,60.0,30.21,ESE,117,1.0,4.0,97,0.00,,,0.00,weatherlink.com 1.10,2013-01-27 08:36:00,
2013-01-27 02:51:00,61.2,60.0,30.21,East,86,1.0,3.0,97,0.00,,,0.00,weatherlink.com 1.10,2013-01-27 08:51:00,
2013-01-27 03:06:00,61.3,61.0,30.21,East,94,1.0,3.0,97,0.00,,,0.00,weatherlink.com 1.10,2013-01-27 09:06:00,
2013-01-27 03:21:00,61.3,61.0,30.21,East,97,0.0,3.0,97,0.00,,,0.00,weatherlink.com 1.10,2013-01-27 09:21:00,
2013-01-27 03:36:00,61.3,61.0,30.21,ESE,104,0.0,3.0,97,0.00,,,0.00,weatherlink.com 1.10,2013-01-27 09:36:00,
2013-01-27 03:51:00,60.4,60.0,30.21,East,82,0.0,3.0,97,0.00,,,0.00,weatherlink.com 1.10,2013-01-27 09:51:00,
2013-01-27 04:06:00,60.1,60.0,30.21,East,88,3.0,3.0,98,0.01,,,0.01,weatherlink.com 1.10,2013-01-27 10:06:00,
2013-01-27 04:21:00,59.8,59.0,30.20,East,88,0.0,5.0,98,0.01,,,0.01,weatherlink.com 1.10,2013-01-27 10:21:00,
2013-01-27 04:36:00,60.3,60.0,30.20,ESE,115,2.0,5.0,98,0.01,,,0.01,weatherlink.com 1.10,2013-01-27 10:36:00,
2013-01-27 04:51:00,59.8,59.0,30.20,SE,135,4.0,7.0,98,0.01,,,0.01,weatherlink.com 1.10,2013-01-27 10:51:00,
2013-01-27 05:06:00,59.7,59.0,30.20,SE,134,3.0,5.0,98,0.00,,,0.01,weatherlink.com 1.10,2013-01-27 11:06:00,
2013-01-27 05:21:00,59.9,59.0,30.21,SE,134,1.0,4.0,98,0.00,,,0.01,weatherlink.com 1.10,2013-01-27 11:21:00,
2013-01-27 05:36:00,59.6,59.0,30.21,SE,134,4.0,5.0,98,0.00,,,0.01,weatherlink.com 1.10,2013-01-27 11:36:00,
2013-01-27 05:51:00,59.6,59.0,30.21,ESE,123,2.0,5.0,98,0.00,,,0.01,weatherlink.com 1.10,2013-01-27 11:51:00,
2013-01-27 06:07:00,59.5,59.0,30.22,SE,125,1.0,5.0,98,0.00,,,0.00,weatherlink.com 1.10,2013-01-27 12:07:00,
2013-01-27 06:22:00,59.5,59.0,30.22,ESE,121,1.0,5.0,98,0.00,,,0.00,weatherlink.com 1.10,2013-01-27 12:22:00,
2013-01-27 06:37:00,59.1,59.0,30.22,SE,146,5.0,7.0,98,0.00,,,0.00,weatherlink.com 1.10,2013-01-27 12:37:00,
2013-01-27 06:52:00,58.2,58.0,30.23,SE,126,4.0,5.0,98,0.00,,,0.00,weatherlink.com 1.10,2013-01-27 12:52:00,
2013-01-27 07:07:00,58.0,58.0,30.23,SE,132,3.0,4.0,98,0.00,,,0.00,weatherlink.com 1.10,2013-01-27 13:07:00,
2013-01-27 07:22:00,58.5,58.0,30.23,ESE,121,4.0,5.0,98,0.00,,,0.00,weatherlink.com 1.10,2013-01-27 13:22:00,
2013-01-27 07:37:00,58.5,58.0,30.23,SE,132,3.0,6.0,98,0.00,,,0.00,weatherlink.com 1.10,2013-01-27 13:37:00,
2013-01-27 07:52:00,58.5,58.0,30.24,ESE,113,4.0,7.0,99,0.00,,,0.00,weatherlink.com 1.10,2013-01-27 13:52:00,
2013-01-27 08:07:00,58.4,58.0,30.24,SE,127,4.0,6.0,98,0.00,,,0.00,weatherlink.com 1.10,2013-01-27 14:07:00,
2013-01-27 08:37:00,58.5,58.0,30.25,ESE,105,3.0,5.0,98,0.00,,,0.00,weatherlink.com 1.10,2013-01-27 14:37:00,
2013-01-27 08:52:00,58.9,59.0,30.25,East,93,3.0,6.0,99,0.00,,,0.00,weatherlink.com 1.10,2013-01-27 14:52:00,
2013-01-27 09:07:00,58.9,59.0,30.25,ESE,103,2.0,5.0,99,0.00,,,0.00,weatherlink.com 1.10,2013-01-27 15:07:00,
2013-01-27 09:22:00,59.3,59.0,30.26,ESE,118,3.0,8.0,99,0.00,,,0.00,weatherlink.com 1.10,2013-01-27 15:22:00,
2013-01-27 09:37:00,59.3,59.0,30.27,ESE,109,5.0,9.0,99,0.00,,,0.00,weatherlink.com 1.10,2013-01-27 15:37:00,
2013-01-27 09:52:00,59.4,59.0,30.27,SE,131,4.0,8.0,99,0.00,,,0.00,weatherlink.com 1.10,2013-01-27 15:52:00,
2013-01-27 10:07:00,58.7,59.0,30.27,SE,144,5.0,9.0,99,0.00,,,0.00,weatherlink.com 1.10,2013-01-27 16:07:00,
2013-01-27 10:22:00,59.0,59.0,30.27,East,97,3.0,9.0,99,0.00,,,0.00,weatherlink.com 1.10,2013-01-27 16:22:00,
2013-01-27 10:37:00,59.3,59.0,30.28,East,101,3.0,5.0,99,0.00,,,0.00,weatherlink.com 1.10,2013-01-27 16:37:00,
2013-01-27 10:52:00,59.9,60.0,30.27,ENE,78,3.0,4.0,99,0.00,,,0.00,weatherlink.com 1.10,2013-01-27 16:52:00,
2013-01-27 11:07:00,60.2,60.0,30.27,East,84,2.0,5.0,99,0.00,,,0.00,weatherlink.com 1.10,2013-01-27 17:07:00,
2013-01-27 11:22:00,60.9,61.0,30.27,East,92,2.0,5.0,99,0.00,,,0.00,weatherlink.com 1.10,2013-01-27 17:22:00,
2013-01-27 11:37:00,61.1,61.0,30.26,East,99,5.0,6.0,99,0.00,,,0.00,weatherlink.com 1.10,2013-01-27 17:37:00,
2013-01-27 11:52:00,61.6,61.0,30.25,East,91,5.0,7.0,98,0.00,,,0.00,weatherlink.com 1.10,2013-01-27 17:52:00,
2013-01-27 12:07:00,61.6,61.0,30.24,East,99,3.0,7.0,98,0.00,,,0.00,weatherlink.com 1.10,2013-01-27 18:07:00,
2013-01-27 12:22:00,61.8,61.0,30.23,East,98,5.0,6.0,98,0.00,,,0.00,weatherlink.com 1.10,2013-01-27 18:22:00,
2013-01-27 12:37:00,61.6,61.0,30.23,East,95,2.0,7.0,98,0.00,,,0.00,weatherlink.com 1.10,2013-01-27 18:37:00,
2013-01-27 12:52:00,61.2,61.0,30.22,ESE,109,2.0,7.0,98,0.00,,,0.00,weatherlink.com 1.10,2013-01-27 18:52:00,
2013-01-27 13:07:00,60.9,60.0,30.21,ESE,107,4.0,7.0,98,0.00,,,0.00,weatherlink.com 1.10,2013-01-27 19:07:00,
2013-01-27 13:22:00,60.8,60.0,30.21,ESE,123,4.0,7.0,98,0.00,,,0.00,weatherlink.com 1.10,2013-01-27 19:22:00,
2013-01-27 13:37:00,60.6,60.0,30.21,ESE,118,1.0,8.0,98,0.00,,,0.00,weatherlink.com 1.10,2013-01-27 19:37:00,
2013-01-27 13:52:00,60.7,60.0,30.21,SE,134,5.0,7.0,98,0.00,,,0.00,weatherlink.com 1.10,2013-01-27 19:52:00,
2013-01-27 14:07:00,60.6,60.0,30.21,ESE,121,1.0,7.0,98,0.00,,,0.00,weatherlink.com 1.10,2013-01-27 20:07:00,
2013-01-27 14:22:00,60.7,60.0,30.21,ESE,105,2.0,5.0,98,0.00,,,0.00,weatherlink.com 1.10,2013-01-27 20:22:00,
2013-01-27 14:37:00,60.7,60.0,30.20,East,88,1.0,5.0,98,0.00,,,0.00,weatherlink.com 1.10,2013-01-27 20:37:00,
2013-01-27 14:53:00,60.2,60.0,30.20,ESE,105,1.0,5.0,98,0.00,,,0.00,weatherlink.com 1.10,2013-01-27 20:53:00,
2013-01-27 15:07:00,60.4,60.0,30.20,ESE,117,1.0,4.0,99,0.00,,,0.00,weatherlink.com 1.10,2013-01-27 21:07:00,
2013-01-27 15:22:00,61.1,61.0,30.20,ESE,109,2.0,4.0,99,0.00,,,0.00,weatherlink.com 1.10,2013-01-27 21:22:00,
2013-01-27 15:37:00,62.0,62.0,30.20,ESE,115,4.0,7.0,99,0.00,,,0.00,weatherlink.com 1.10,2013-01-27 21:37:00,
2013-01-27 15:52:00,62.3,62.0,30.20,ESE,109,4.0,5.0,99,0.00,,,0.00,weatherlink.com 1.10,2013-01-27 21:52:00,
2013-01-27 16:07:00,62.7,62.0,30.20,ESE,105,2.0,6.0,98,0.00,,,0.00,weatherlink.com 1.10,2013-01-27 22:07:00,
2013-01-27 16:22:00,62.8,62.0,30.20,ESE,105,2.0,6.0,98,0.00,,,0.00,weatherlink.com 1.10,2013-01-27 22:22:00,
2013-01-27 16:37:00,63.1,63.0,30.20,ESE,105,0.0,5.0,98,0.00,,,0.00,weatherlink.com 1.10,2013-01-27 22:37:00,
2013-01-27 16:52:00,62.9,62.0,30.20,East,96,3.0,5.0,98,0.00,,,0.00,weatherlink.com 1.10,2013-01-27 22:52:00,
2013-01-27 17:07:00,62.8,62.0,30.20,ESE,105,1.0,5.0,98,0.00,,,0.00,weatherlink.com 1.10,2013-01-27 23:07:00,
2013-01-27 17:22:00,62.7,62.0,30.20,ESE,105,2.0,5.0,98,0.00,,,0.00,weatherlink.com 1.10,2013-01-27 23:22:00,
2013-01-27 17:37:00,62.6,62.0,30.20,ESE,119,4.0,5.0,98,0.00,,,0.00,weatherlink.com 1.10,2013-01-27 23:37:00,
2013-01-27 17:52:00,62.5,62.0,30.20,ESE,121,0.0,5.0,98,0.00,,,0.00,weatherlink.com 1.10,2013-01-27 23:52:00,
2013-01-27 18:07:00,62.4,62.0,30.20,ESE,115,3.0,5.0,98,0.00,,,0.00,weatherlink.com 1.10,2013-01-28 00:07:00,
2013-01-27 18:22:00,62.3,62.0,30.20,ESE,107,2.0,5.0,98,0.00,,,0.00,weatherlink.com 1.10,2013-01-28 00:22:00,
2013-01-27 18:37:00,62.3,62.0,30.20,ESE,122,3.0,5.0,98,0.00,,,0.00,weatherlink.com 1.10,2013-01-28 00:37:00,
2013-01-27 18:52:00,62.3,62.0,30.20,ESE,114,1.0,4.0,98,0.00,,,0.00,weatherlink.com 1.10,2013-01-28 00:52:00,
2013-01-27 19:07:00,62.2,62.0,30.21,ESE,103,2.0,5.0,98,0.00,,,0.00,weatherlink.com 1.10,2013-01-28 01:07:00,
2013-01-27 19:22:00,62.2,62.0,30.21,East,90,2.0,3.0,98,0.00,,,0.00,weatherlink.com 1.10,2013-01-28 01:22:00,
2013-01-27 19:37:00,62.2,62.0,30.21,ESE,104,1.0,3.0,98,0.00,,,0.00,weatherlink.com 1.10,2013-01-28 01:37:00,
2013-01-27 19:52:00,62.3,62.0,30.22,East,85,3.0,3.0,98,0.00,,,0.00,weatherlink.com 1.10,2013-01-28 01:52:00,
2013-01-27 20:07:00,62.3,62.0,30.21,East,85,0.0,3.0,98,0.00,,,0.00,weatherlink.com 1.10,2013-01-28 02:07:00,
2013-01-27 20:22:00,62.5,62.0,30.22,East,88,2.0,3.0,98,0.00,,,0.00,weatherlink.com 1.10,2013-01-28 02:22:00,
2013-01-27 20:37:00,62.5,62.0,30.22,East,90,2.0,3.0,97,0.00,,,0.00,weatherlink.com 1.10,2013-01-28 02:37:00,
2013-01-27 20:52:00,62.5,62.0,30.22,ESE,113,2.0,7.0,97,0.00,,,0.00,weatherlink.com 1.10,2013-01-28 02:52:00,
2013-01-27 21:07:00,62.4,62.0,30.22,SE,124,0.0,5.0,97,0.00,,,0.00,weatherlink.com 1.10,2013-01-28 03:07:00,
2013-01-27 21:22:00,62.3,62.0,30.22,SE,124,4.0,4.0,97,0.00,,,0.00,weatherlink.com 1.10,2013-01-28 03:22:00,
2013-01-27 21:37:00,62.3,62.0,30.22,SE,125,0.0,4.0,98,0.00,,,0.00,weatherlink.com 1.10,2013-01-28 03:37:00,
2013-01-27 21:52:00,62.3,62.0,30.22,SE,126,4.0,7.0,98,0.00,,,0.00,weatherlink.com 1.10,2013-01-28 03:52:00,
2013-01-27 22:07:00,62.3,62.0,30.21,SSE,147,5.0,8.0,98,0.00,,,0.00,weatherlink.com 1.10,2013-01-28 04:07:00,
2013-01-27 22:22:00,62.3,62.0,30.21,SSE,147,6.0,10.0,98,0.01,,,0.01,weatherlink.com 1.10,2013-01-28 04:22:00,
2013-01-27 22:37:00,62.3,62.0,30.21,SE,142,5.0,9.0,98,0.01,,,0.01,weatherlink.com 1.10,2013-01-28 04:37:00,
2013-01-27 22:52:00,62.3,62.0,30.21,SE,146,5.0,9.0,98,0.01,,,0.01,weatherlink.com 1.10,2013-01-28 04:52:00,
2013-01-27 23:07:00,62.3,62.0,30.21,SE,144,4.0,8.0,98,0.01,,,0.01,weatherlink.com 1.10,2013-01-28 05:07:00,
2013-01-27 23:23:00,62.2,62.0,30.21,SE,143,6.0,8.0,98,0.00,,,0.01,weatherlink.com 1.10,2013-01-28 05:23:00,
2013-01-27 23:38:00,62.1,62.0,30.21,SE,144,4.0,6.0,98,0.00,,,0.01,weatherlink.com 1.10,2013-01-28 05:38:00,
2013-01-27 23:53:00,62.2,62.0,30.20,SSE,149,7.0,9.0,98,0.00,,,0.01,weatherlink.com 1.10,2013-01-28 05:53:00,